STARLINK-31760, 59869

Orbit data source: Space-Track

STARLINK-31760, 59869 is a payload satellite owned by SpaceX/Seattle (US) in LEO that was launched on Fri, 24 May 2024 UTC via an FALCON 9 launch vehicle from the Air Force Eastern Test Range (AFETR). Payload-class satellites include a variety of spacecraft equipped with specific instruments for various scientific and technological missions. These include communications satellites like Starlink; space stations such as the ISS; scientific satellites like the Hubble; Earth observation satellites from companies like Planet Labs, Umbra, and HawkEye 360; GPS; miniature CubeSats for education and research; and military/defense satellites.

Loading next visibility...
Identifier
59869, 2024-098M
Orbit
LEO
Country
Flag of USUS
Related business
Manufacturer
SpaceX/Seattle
Mission
Operational Commercial Communications
Bus & Motor
STARLINK V2M, Unknown motor
Mass
730 kg wet, ~700 kg dry
Launch date (UTC)
2024-05-24 (2 years ago)
Launch vehicle
FALCON 9
Launch site
Air Force Eastern Test Range (AFETR)
Object type
Payload
Rocket body
Debris
Shape & HBR
Box + 2 Pan, 17.7 m
Radar Cross Section
33.884 m², Large (>1 m²)

Expand to show TLE details & history
Last TLE update: 2 days ago

TLE from 2 days ago
0 STARLINK-31760
1 59869U 24098M   26171.41631596  .00001484  00000-0  63427-4 0  9995
2 59869  43.0051  58.1269 0001329 277.9018  82.1683 15.27579472117558
Epoch: 2026-06-20T09:59Z
TLE epoch observation values (Epoch: 2026-06-20T09:59:29.698Z)
Latitude
-0.00003°
Longitude
-0.37812°
Altitude
482.703 km
Speed
7.626 km/s
True Right ascension
03h 52m 30s
True Declination
0° 00' 00"
Sunlit
Object was in daylight at epoch
Visualization orbit readout
Latitude
Unknown
Longitude
Unknown
Altitude
Unknown
Speed
Unknown
Apparent Right ascension
Unknown
Apparent Declination
Unknown
Sunlit
N/A
Visualization observer readout
Local Sidereal Time
21:26:52
Azimuth
Unknown
Elevation
Unknown
Doppler factor
Unknown
Orbital elements
Apogee altitude
485.907 km
Perigee altitude
484.083 km
Semi-major axis
6,863.132 km
Eccentricity
0.00013
Inclination
43.0051°
RAAN
58.1269°
Arg. of periapsis
277.9018°
True anomaly
82.18339°
Mean anomaly
82.1683°
Eccentric anomaly
82.17584°
Mean motion
3.81733 °/min
Orbital period
94.31 mins
BSTAR
0.000063427
Loading maneuver chart data...
Computing Atmospheric mass density...
Loading historical data...
Loading historical data...
Loading historical data...
Loading historical data...
Loading historical data...
Loading historical data...
Loading historical data...

Documentation

Showing up to 5 results
|